Location: ????????
(60.4333°N, 46.4710°E)
Time: 04:37:47
(UTC+00:00)

Cosmos 2084 Rocket - Pass Details

Date: 25 November 2020
Orbit: 536 x 644 km, 62.8° (Epoch: 19 January)

Event Time Altitude Azimuth Distance (km) Brightness Sun altitude
Rises 14:20:57 0° 242° (WSW) 2,726 8.5 -15.6°
Reaches altitude 10° 14:23:08 10° 242° (WSW) 1,847 7.3 -15.9°
Maximum altitude 14:27:17 85° 158° (SSE) 581 3.3 -16.4°
Enters shadow 14:29:10 33° 69° (ENE) 986 4.0 -16.6°
